Location: Gorze? G�rny
(49.8500°N, 19.5000°E)
Time: 04:19:03
(UTC+00:00)

Cosmos 1821 Rocket - Pass Details

Date: 13 May 2021
Orbit: 945 x 1004 km, 82.9° (Epoch: 23 June)

Event Time Altitude Azimuth Distance (km) Brightness Sun altitude
Rises 22:35:37 0° 347° (NNW) 3,746 8.5 -21.5°
Reaches altitude 10° 22:38:11 10° 344° (NNW) 2,792 7.5 -21.5°
Maximum altitude 22:44:28 59° 267° (W) 1,146 4.3 -21.5°
Enters shadow 22:46:53 37° 206° (SSW) 1,503 4.5 -21.5°
